Time,TemperatureF,DewpointF,PressureIn,WindDirection,WindDirectionDegrees,WindSpeedMPH,WindSpeedGustMPH,Humidity,HourlyPrecipIn,Conditions,Clouds,dailyrainin,SolarRadiationWatts/m^2,SoftwareType,DateUTC
2013-01-14 00:00:00,32.7,29.8,29.83,WNW,301,12.0,13.0,89,0.00,,---,0.78,0.00,VWS V14.01,2013-01-14 05:00:00,
2013-01-14 00:01:00,32.7,29.8,29.84,NW,314,6.0,10.0,89,0.00,,---,0.78,0.00,VWS V14.01,2013-01-14 05:01:00,
2013-01-14 00:06:00,32.5,29.6,29.84,NW,306,9.0,12.0,89,0.00,,---,0.00,0.00,VWS V14.01,2013-01-14 05:06:00,
2013-01-14 00:11:00,32.4,29.5,29.85,NW,308,10.0,10.0,89,0.00,,---,0.00,0.00,VWS V14.01,2013-01-14 05:11:00,
2013-01-14 00:16:00,32.5,29.6,29.85,NW,304,9.0,11.0,89,0.00,,---,0.00,0.00,VWS V14.01,2013-01-14 05:16:00,
2013-01-14 00:21:00,32.4,29.5,29.85,NW,304,9.0,15.0,89,0.00,,---,0.00,0.00,VWS V14.01,2013-01-14 05:21:00,
2013-01-14 00:26:00,32.0,28.9,29.85,NW,304,9.0,12.0,88,0.00,,---,0.00,0.00,VWS V14.01,2013-01-14 05:26:00,
2013-01-14 00:31:00,31.8,28.7,29.85,NW,309,5.0,10.0,88,0.00,,---,0.00,0.00,VWS V14.01,2013-01-14 05:31:00,
2013-01-14 00:36:00,31.7,28.6,29.85,NW,306,10.0,12.0,88,0.00,,---,0.00,0.00,VWS V14.01,2013-01-14 05:36:00,
2013-01-14 00:41:00,31.4,27.7,29.86,NW,304,10.0,14.0,86,0.00,,---,0.00,0.00,VWS V14.01,2013-01-14 05:41:00,
2013-01-14 00:46:00,31.2,26.9,29.86,WNW,300,18.0,18.0,84,0.00,,---,0.00,0.00,VWS V14.01,2013-01-14 05:46:00,
2013-01-14 00:51:00,31.0,26.5,29.86,NW,306,13.0,18.0,83,0.00,,---,0.00,0.00,VWS V14.01,2013-01-14 05:51:00,
2013-01-14 00:56:00,30.8,26.5,29.86,NW,317,9.0,11.0,84,0.00,,---,0.00,0.00,VWS V14.01,2013-01-14 05:56:00,
2013-01-14 01:01:00,30.8,26.5,29.86,NW,324,5.0,9.0,84,0.00,,---,0.00,0.00,VWS V14.01,2013-01-14 06:01:00,
2013-01-14 01:06:00,30.7,26.5,29.86,NW,322,10.0,14.0,84,0.00,,---,0.00,0.00,VWS V14.01,2013-01-14 06:06:00,
2013-01-14 01:11:00,30.5,26.5,29.87,NW,311,11.0,14.0,85,0.00,,---,0.00,0.00,VWS V14.01,2013-01-14 06:11:00,
2013-01-14 01:16:00,30.5,26.5,29.87,NNW,327,7.0,15.0,85,0.00,,---,0.00,0.00,VWS V14.01,2013-01-14 06:16:00,
2013-01-14 01:21:00,30.5,26.5,29.88,WNW,300,7.0,13.0,85,0.00,,---,0.00,0.00,VWS V14.01,2013-01-14 06:21:00,
2013-01-14 01:26:00,30.1,25.9,29.88,WNW,290,12.0,17.0,84,0.00,,---,0.00,0.00,VWS V14.01,2013-01-14 06:26:00,
2013-01-14 01:31:00,29.6,25.1,29.88,WNW,298,12.0,15.0,83,0.00,,---,0.00,0.00,VWS V14.01,2013-01-14 06:31:00,
2013-01-14 01:36:00,29.1,24.9,29.89,WNW,302,13.0,13.0,84,0.00,,---,0.00,0.00,VWS V14.01,2013-01-14 06:36:00,
2013-01-14 01:41:00,28.8,24.9,29.90,WNW,292,11.0,16.0,85,0.00,,---,0.00,0.00,VWS V14.01,2013-01-14 06:41:00,
2013-01-14 01:46:00,28.3,24.4,29.90,West,278,13.0,16.0,85,0.00,,---,0.00,0.00,VWS V14.01,2013-01-14 06:46:00,
2013-01-14 01:51:00,28.0,24.1,29.90,NW,317,7.0,11.0,85,0.00,,---,0.00,0.00,VWS V14.01,2013-01-14 06:51:00,
2013-01-14 01:56:00,27.8,23.9,29.91,NW,323,9.0,12.0,85,0.00,,---,0.00,0.00,VWS V14.01,2013-01-14 06:56:00,
2013-01-14 02:01:00,27.8,23.9,29.91,WNW,303,11.0,13.0,85,0.00,,---,0.00,0.00,VWS V14.01,2013-01-14 07:01:00,
2013-01-14 02:06:00,27.8,23.9,29.91,NW,311,9.0,12.0,85,0.00,,---,0.00,0.00,VWS V14.01,2013-01-14 07:06:00,
2013-01-14 02:11:00,27.7,23.5,29.91,NW,311,10.0,15.0,84,0.00,,---,0.00,0.00,VWS V14.01,2013-01-14 07:11:00,
2013-01-14 02:16:00,27.6,23.4,29.92,NNW,327,6.0,7.0,84,0.00,,---,0.00,0.00,VWS V14.01,2013-01-14 07:16:00,
2013-01-14 02:21:00,27.7,23.8,29.92,NW,323,6.0,6.0,85,0.00,,---,0.00,0.00,VWS V14.01,2013-01-14 07:21:00,
2013-01-14 02:26:00,27.5,23.6,29.93,NW,321,10.0,13.0,85,0.00,,---,0.00,0.00,VWS V14.01,2013-01-14 07:26:00,
2013-01-14 02:31:00,27.2,23.0,29.94,NW,304,16.0,16.0,84,0.00,,---,0.00,0.00,VWS V14.01,2013-01-14 07:31:00,
2013-01-14 02:36:00,26.8,22.6,29.94,NW,308,9.0,11.0,84,0.00,,---,0.00,0.00,VWS V14.01,2013-01-14 07:36:00,
2013-01-14 02:41:00,26.6,22.4,29.95,NW,306,10.0,10.0,84,0.00,,---,0.00,0.00,VWS V14.01,2013-01-14 07:41:00,
2013-01-14 02:46:00,26.4,22.2,29.95,WNW,302,11.0,14.0,84,0.00,,---,0.00,0.00,VWS V14.01,2013-01-14 07:46:00,
2013-01-14 02:51:00,26.3,22.4,29.95,NW,309,7.0,10.0,85,0.00,,---,0.00,0.00,VWS V14.01,2013-01-14 07:51:00,
2013-01-14 02:56:00,26.3,22.4,29.95,WNW,292,4.0,9.0,85,0.00,,---,0.00,0.00,VWS V14.01,2013-01-14 07:56:00,
2013-01-14 03:01:00,26.4,22.8,29.95,NW,310,8.0,8.0,86,0.00,,---,0.00,0.00,VWS V14.01,2013-01-14 08:01:00,
2013-01-14 03:06:00,26.5,22.9,29.95,NW,321,5.0,10.0,86,0.00,,---,0.00,0.00,VWS V14.01,2013-01-14 08:06:00,
2013-01-14 03:11:00,26.4,22.5,29.96,NW,323,9.0,13.0,85,0.00,,---,0.00,0.00,VWS V14.01,2013-01-14 08:11:00,
2013-01-14 03:16:00,25.9,21.7,29.96,NW,315,8.0,12.0,84,0.00,,---,0.00,0.00,VWS V14.01,2013-01-14 08:16:00,
2013-01-14 03:21:00,25.5,21.4,29.96,NNW,330,13.0,13.0,84,0.00,,---,0.00,0.00,VWS V14.01,2013-01-14 08:21:00,
2013-01-14 03:26:00,25.4,21.5,29.96,WNW,299,7.0,10.0,85,0.00,,---,0.00,0.00,VWS V14.01,2013-01-14 08:26:00,
2013-01-14 03:31:00,25.3,21.1,29.97,NNW,330,10.0,12.0,84,0.00,,---,0.00,0.00,VWS V14.01,2013-01-14 08:31:00,
2013-01-14 03:36:00,25.2,21.3,29.96,NW,309,10.0,13.0,85,0.00,,---,0.00,0.00,VWS V14.01,2013-01-14 08:36:00,
2013-01-14 03:41:00,25.2,21.3,29.97,NW,315,13.0,15.0,85,0.00,,---,0.00,0.00,VWS V14.01,2013-01-14 08:41:00,
2013-01-14 03:46:00,25.2,21.3,29.97,NW,316,10.0,13.0,85,0.00,,---,0.00,0.00,VWS V14.01,2013-01-14 08:46:00,
2013-01-14 03:51:00,25.1,21.0,29.97,WNW,300,14.0,14.0,84,0.00,,---,0.00,0.00,VWS V14.01,2013-01-14 08:51:00,
2013-01-14 03:56:00,24.9,20.8,29.97,NW,307,7.0,10.0,84,0.00,,---,0.00,0.00,VWS V14.01,2013-01-14 08:56:00,
2013-01-14 04:01:00,24.9,20.8,29.97,NW,306,11.0,13.0,84,0.00,,---,0.00,0.00,VWS V14.01,2013-01-14 09:01:00,
2013-01-14 04:06:00,24.9,21.0,29.97,NNW,329,11.0,15.0,85,0.00,,---,0.00,0.00,VWS V14.01,2013-01-14 09:06:00,
2013-01-14 04:11:00,25.0,21.1,29.97,NW,314,6.0,6.0,85,0.00,,---,0.00,0.00,VWS V14.01,2013-01-14 09:11:00,
2013-01-14 04:16:00,25.0,21.4,29.98,WNW,302,5.0,9.0,86,0.00,,---,0.00,0.00,VWS V14.01,2013-01-14 09:16:00,
2013-01-14 04:21:00,24.8,20.9,29.98,WNW,291,15.0,15.0,85,0.00,,---,0.00,0.00,VWS V14.01,2013-01-14 09:21:00,
2013-01-14 04:26:00,24.5,20.6,29.98,WNW,299,5.0,11.0,85,0.00,,---,0.00,0.00,VWS V14.01,2013-01-14 09:26:00,
2013-01-14 04:31:00,24.5,20.6,29.98,WNW,297,12.0,14.0,85,0.00,,---,0.00,0.00,VWS V14.01,2013-01-14 09:31:00,
2013-01-14 04:36:00,24.5,20.9,29.97,WNW,300,9.0,12.0,86,0.00,,---,0.00,0.00,VWS V14.01,2013-01-14 09:36:00,
2013-01-14 04:41:00,24.6,21.0,29.98,NW,322,11.0,12.0,86,0.00,,---,0.00,0.00,VWS V14.01,2013-01-14 09:41:00,
2013-01-14 04:46:00,24.7,21.1,29.98,WNW,294,7.0,12.0,86,0.00,,---,0.00,0.00,VWS V14.01,2013-01-14 09:46:00,
2013-01-14 04:51:00,24.8,21.2,29.98,NW,313,9.0,10.0,86,0.00,,---,0.00,0.00,VWS V14.01,2013-01-14 09:51:00,
2013-01-14 04:56:00,24.9,21.3,29.98,NNW,337,7.0,10.0,86,0.00,,---,0.00,0.00,VWS V14.01,2013-01-14 09:56:00,
2013-01-14 05:01:00,24.9,21.3,29.99,NW,311,8.0,9.0,86,0.00,,---,0.00,0.00,VWS V14.01,2013-01-14 10:01:00,
2013-01-14 05:06:00,25.0,21.4,29.99,NW,306,12.0,12.0,86,0.00,,---,0.00,0.00,VWS V14.01,2013-01-14 10:06:00,
2013-01-14 05:11:00,25.0,21.4,30.00,NW,305,7.0,10.0,86,0.00,,---,0.00,0.00,VWS V14.01,2013-01-14 10:11:00,
2013-01-14 05:16:00,25.0,21.4,29.99,WNW,300,11.0,11.0,86,0.00,,---,0.00,0.00,VWS V14.01,2013-01-14 10:16:00,
2013-01-14 05:21:00,24.9,21.6,30.00,NW,307,8.0,11.0,87,0.00,,---,0.00,0.00,VWS V14.01,2013-01-14 10:21:00,
2013-01-14 05:26:00,24.9,21.6,29.99,NW,304,10.0,10.0,87,0.00,,---,0.00,0.00,VWS V14.01,2013-01-14 10:26:00,
2013-01-14 05:31:00,24.9,21.6,29.99,WNW,292,5.0,9.0,87,0.00,,---,0.00,0.00,VWS V14.01,2013-01-14 10:31:00,
2013-01-14 05:36:00,24.7,21.4,29.99,WNW,296,7.0,11.0,87,0.00,,---,0.00,0.00,VWS V14.01,2013-01-14 10:36:00,
2013-01-14 05:41:00,24.6,21.3,29.99,WNW,301,7.0,7.0,87,0.00,,---,0.00,0.00,VWS V14.01,2013-01-14 10:41:00,
2013-01-14 05:46:00,24.5,21.2,29.99,WNW,300,10.0,11.0,87,0.00,,---,0.00,0.00,VWS V14.01,2013-01-14 10:46:00,
2013-01-14 05:51:00,24.5,21.2,30.00,NW,309,6.0,9.0,87,0.00,,---,0.00,0.00,VWS V14.01,2013-01-14 10:51:00,
2013-01-14 05:56:00,24.5,21.2,30.00,WNW,296,6.0,7.0,87,0.00,,---,0.00,0.00,VWS V14.01,2013-01-14 10:56:00,
2013-01-14 06:01:00,24.4,21.1,30.00,NW,304,6.0,9.0,87,0.00,,---,0.00,0.00,VWS V14.01,2013-01-14 11:01:00,
2013-01-14 06:06:00,24.5,21.5,30.01,WNW,297,5.0,6.0,88,0.00,,---,0.00,0.00,VWS V14.01,2013-01-14 11:06:00,
2013-01-14 06:11:00,24.4,21.4,30.01,WNW,302,7.0,11.0,88,0.00,,---,0.00,0.00,VWS V14.01,2013-01-14 11:11:00,
2013-01-14 06:16:00,24.3,21.0,30.01,WNW,302,6.0,9.0,87,0.00,,---,0.00,0.00,VWS V14.01,2013-01-14 11:16:00,
2013-01-14 06:21:00,24.2,21.2,30.01,WNW,296,6.0,9.0,88,0.00,,---,0.00,0.00,VWS V14.01,2013-01-14 11:21:00,
2013-01-14 06:26:00,24.2,20.9,30.01,NW,310,6.0,7.0,87,0.00,,---,0.00,0.00,VWS V14.01,2013-01-14 11:26:00,
2013-01-14 06:31:00,24.1,21.1,30.02,NW,310,10.0,10.0,88,0.00,,---,0.00,0.00,VWS V14.01,2013-01-14 11:31:00,
2013-01-14 06:36:00,24.0,20.7,30.02,WNW,302,6.0,7.0,87,0.00,,---,0.00,0.00,VWS V14.01,2013-01-14 11:36:00,
2013-01-14 06:41:00,24.0,20.7,30.02,NW,309,10.0,10.0,87,0.00,,---,0.00,0.00,VWS V14.01,2013-01-14 11:41:00,
2013-01-14 06:46:00,23.9,20.6,30.03,NW,306,9.0,10.0,87,0.00,,---,0.00,0.00,VWS V14.01,2013-01-14 11:46:00,
2013-01-14 06:51:00,23.8,20.5,30.03,NW,325,5.0,7.0,87,0.00,,---,0.00,0.00,VWS V14.01,2013-01-14 11:51:00,
2013-01-14 06:56:00,23.7,20.4,30.03,NW,313,5.0,10.0,87,0.00,,---,0.00,0.00,VWS V14.01,2013-01-14 11:56:00,
2013-01-14 07:01:00,23.7,20.4,30.03,NNW,329,9.0,12.0,87,0.00,,---,0.00,0.00,VWS V14.01,2013-01-14 12:01:00,
2013-01-14 07:06:00,23.5,19.9,30.04,NW,323,7.0,10.0,86,0.00,,---,0.00,0.00,VWS V14.01,2013-01-14 12:06:00,
2013-01-14 07:11:00,23.2,19.6,30.05,NW,325,6.0,11.0,86,0.00,,---,0.00,0.00,VWS V14.01,2013-01-14 12:11:00,
2013-01-14 07:16:00,23.2,19.6,30.05,NW,317,9.0,9.0,86,0.00,,---,0.00,0.00,VWS V14.01,2013-01-14 12:16:00,
2013-01-14 07:21:00,23.1,19.5,30.06,NNW,331,5.0,11.0,86,0.00,,---,0.00,0.00,VWS V14.01,2013-01-14 12:21:00,
2013-01-14 07:26:00,23.0,19.5,30.06,WNW,302,11.0,11.0,86,0.00,,---,0.00,0.00,VWS V14.01,2013-01-14 12:26:00,
2013-01-14 07:31:00,22.9,19.4,30.06,NW,312,6.0,8.0,86,0.00,,---,0.00,0.00,VWS V14.01,2013-01-14 12:31:00,
2013-01-14 07:36:00,22.9,19.4,30.06,NW,313,7.0,10.0,86,0.00,,---,0.00,0.00,VWS V14.01,2013-01-14 12:36:00,
2013-01-14 07:41:00,23.0,19.7,30.06,NW,319,5.0,5.0,87,0.00,,---,0.00,0.00,VWS V14.01,2013-01-14 12:41:00,
2013-01-14 07:46:00,23.1,19.8,30.07,NW,323,6.0,10.0,87,0.00,,---,0.00,0.00,VWS V14.01,2013-01-14 12:46:00,
2013-01-14 07:51:00,23.2,19.9,30.07,NW,305,14.0,14.0,87,0.00,,---,0.00,0.00,VWS V14.01,2013-01-14 12:51:00,
2013-01-14 07:56:00,23.1,19.8,30.07,NW,309,5.0,10.0,87,0.00,,---,0.00,0.00,VWS V14.01,2013-01-14 12:56:00,
2013-01-14 08:01:00,23.1,19.8,30.08,NW,325,6.0,6.0,87,0.00,,---,0.00,0.00,VWS V14.01,2013-01-14 13:01:00,
2013-01-14 08:06:00,23.2,19.9,30.08,NW,325,4.0,4.0,87,0.00,,---,0.00,0.00,VWS V14.01,2013-01-14 13:06:00,
2013-01-14 08:11:00,23.4,20.1,30.09,NNW,334,4.0,6.0,87,0.00,,---,0.00,5.00,VWS V14.01,2013-01-14 13:11:00,
2013-01-14 08:16:00,23.4,19.8,30.09,NNW,329,4.0,7.0,86,0.00,,---,0.00,7.00,VWS V14.01,2013-01-14 13:16:00,
2013-01-14 08:21:00,23.4,19.8,30.09,NNW,327,3.0,4.0,86,0.00,,---,0.00,11.00,VWS V14.01,2013-01-14 13:21:00,
2013-01-14 08:26:00,23.5,19.9,30.09,NW,325,4.0,6.0,86,0.00,,---,0.00,11.00,VWS V14.01,2013-01-14 13:26:00,
2013-01-14 08:31:00,23.5,19.9,30.10,NW,320,5.0,7.0,86,0.00,,---,0.00,12.00,VWS V14.01,2013-01-14 13:31:00,
2013-01-14 08:36:00,23.4,19.8,30.10,NW,306,5.0,8.0,86,0.00,,---,0.00,14.00,VWS V14.01,2013-01-14 13:36:00,
2013-01-14 08:41:00,23.3,19.7,30.10,WNW,300,7.0,7.0,86,0.00,,---,0.00,19.00,VWS V14.01,2013-01-14 13:41:00,
2013-01-14 08:46:00,23.2,19.9,30.11,NW,317,6.0,7.0,87,0.00,,---,0.00,23.00,VWS V14.01,2013-01-14 13:46:00,
2013-01-14 08:51:00,23.1,19.8,30.11,NW,315,3.0,3.0,87,0.00,,---,0.00,32.00,VWS V14.01,2013-01-14 13:51:00,
2013-01-14 08:56:00,23.1,19.5,30.11,NW,315,3.0,3.0,86,0.00,,---,0.00,40.00,VWS V14.01,2013-01-14 13:56:00,
2013-01-14 09:01:00,23.0,19.5,30.11,NW,315,3.0,6.0,86,0.00,,---,0.00,33.00,VWS V14.01,2013-01-14 14:01:00,
2013-01-14 09:06:00,22.9,19.4,30.11,NW,316,4.0,5.0,86,0.00,,---,0.00,49.00,VWS V14.01,2013-01-14 14:06:00,
2013-01-14 09:11:00,23.0,19.5,30.11,NW,319,4.0,4.0,86,0.00,,---,0.00,54.00,VWS V14.01,2013-01-14 14:11:00,
2013-01-14 09:16:00,22.9,19.4,30.12,NW,319,0.0,2.0,86,0.00,,---,0.00,47.00,VWS V14.01,2013-01-14 14:16:00,
2013-01-14 09:21:00,22.9,19.4,30.12,NW,318,2.0,5.0,86,0.00,,---,0.00,47.00,VWS V14.01,2013-01-14 14:21:00,
2013-01-14 09:26:00,22.9,19.4,30.13,NW,318,3.0,3.0,86,0.00,,---,0.00,46.00,VWS V14.01,2013-01-14 14:26:00,
2013-01-14 09:31:00,22.9,19.4,30.13,NW,309,6.0,7.0,86,0.00,,---,0.00,46.00,VWS V14.01,2013-01-14 14:31:00,
2013-01-14 09:36:00,22.9,19.4,30.13,NW,306,4.0,6.0,86,0.00,,---,0.00,58.00,VWS V14.01,2013-01-14 14:36:00,
2013-01-14 09:41:00,22.9,19.4,30.13,NW,310,5.0,6.0,86,0.00,,---,0.00,74.00,VWS V14.01,2013-01-14 14:41:00,
2013-01-14 09:46:00,23.0,19.5,30.13,NW,306,6.0,7.0,86,0.00,,---,0.00,72.00,VWS V14.01,2013-01-14 14:46:00,
2013-01-14 09:51:00,22.9,19.4,30.13,NNW,327,3.0,8.0,86,0.00,,---,0.00,77.00,VWS V14.01,2013-01-14 14:51:00,
2013-01-14 09:56:00,22.9,19.4,30.14,NW,322,3.0,4.0,86,0.00,,---,0.00,95.00,VWS V14.01,2013-01-14 14:56:00,
2013-01-14 10:01:00,22.9,19.4,30.13,NW,323,0.0,0.0,86,0.00,,---,0.00,113.00,VWS V14.01,2013-01-14 15:01:00,
2013-01-14 10:06:00,22.9,19.4,30.13,NW,324,3.0,4.0,86,0.00,,---,0.00,97.00,VWS V14.01,2013-01-14 15:06:00,
2013-01-14 10:11:00,22.9,19.4,30.13,NW,324,4.0,5.0,86,0.00,,---,0.00,95.00,VWS V14.01,2013-01-14 15:11:00,
2013-01-14 10:16:00,22.9,19.1,30.13,NW,323,0.0,0.0,85,0.00,,---,0.00,113.00,VWS V14.01,2013-01-14 15:16:00,
2013-01-14 10:21:00,22.9,19.4,30.13,NW,323,0.0,0.0,86,0.00,,---,0.00,105.00,VWS V14.01,2013-01-14 15:21:00,
2013-01-14 10:26:00,23.0,19.2,30.13,NW,323,0.0,0.0,85,0.00,,---,0.00,104.00,VWS V14.01,2013-01-14 15:26:00,
2013-01-14 10:31:00,23.0,19.2,30.13,NW,321,3.0,6.0,85,0.00,,---,0.00,111.00,VWS V14.01,2013-01-14 15:31:00,
2013-01-14 10:36:00,23.1,19.3,30.13,NW,321,5.0,9.0,85,0.00,,---,0.00,128.00,VWS V14.01,2013-01-14 15:36:00,
2013-01-14 10:41:00,23.4,19.6,30.13,NW,322,5.0,6.0,85,0.00,,---,0.00,146.00,VWS V14.01,2013-01-14 15:41:00,
2013-01-14 10:46:00,23.6,19.8,30.13,NW,324,5.0,5.0,85,0.00,,---,0.00,158.00,VWS V14.01,2013-01-14 15:46:00,
2013-01-14 10:51:00,23.7,19.9,30.12,NW,325,2.0,2.0,85,0.00,,---,0.00,149.00,VWS V14.01,2013-01-14 15:51:00,
2013-01-14 10:56:00,23.9,20.1,30.12,NW,325,0.0,2.0,85,0.00,,---,0.00,204.00,VWS V14.01,2013-01-14 15:56:00,
2013-01-14 11:01:00,23.9,19.8,30.12,NNW,332,3.0,4.0,84,0.00,,---,0.00,174.00,VWS V14.01,2013-01-14 16:01:00,
2013-01-14 11:06:00,23.7,19.3,30.12,NNW,333,1.0,3.0,83,0.00,,---,0.00,179.00,VWS V14.01,2013-01-14 16:06:00,
2013-01-14 11:11:00,23.7,19.6,30.12,NNW,338,0.0,0.0,84,0.00,,---,0.00,174.00,VWS V14.01,2013-01-14 16:11:00,
2013-01-14 11:16:00,23.9,19.8,30.11,NNW,338,0.0,0.0,84,0.00,,---,0.00,186.00,VWS V14.01,2013-01-14 16:16:00,
2013-01-14 11:21:00,24.2,20.1,30.11,NNW,338,0.0,0.0,84,0.00,,---,0.00,163.00,VWS V14.01,2013-01-14 16:21:00,
2013-01-14 11:26:00,24.3,20.2,30.11,NNW,338,0.0,0.0,84,0.00,,---,0.00,156.00,VWS V14.01,2013-01-14 16:26:00,
2013-01-14 11:31:00,24.2,19.8,30.10,North,355,2.0,3.0,83,0.00,,---,0.00,186.00,VWS V14.01,2013-01-14 16:31:00,
2013-01-14 11:36:00,24.1,19.7,30.09,North,355,0.0,2.0,83,0.00,,---,0.00,214.00,VWS V14.01,2013-01-14 16:36:00,
2013-01-14 11:41:00,24.1,19.7,30.08,North,355,3.0,5.0,83,0.00,,---,0.00,190.00,VWS V14.01,2013-01-14 16:41:00,
2013-01-14 11:46:00,24.0,19.3,30.08,North,5,3.0,6.0,82,0.00,,---,0.00,207.00,VWS V14.01,2013-01-14 16:46:00,
2013-01-14 11:51:00,24.0,19.3,30.08,NNE,14,3.0,5.0,82,0.00,,---,0.00,155.00,VWS V14.01,2013-01-14 16:51:00,
2013-01-14 11:56:00,24.0,19.3,30.07,NNE,14,2.0,3.0,82,0.00,,---,0.00,167.00,VWS V14.01,2013-01-14 16:56:00,
2013-01-14 12:01:00,24.1,19.7,30.07,NNE,14,2.0,2.0,83,0.00,,---,0.00,230.00,VWS V14.01,2013-01-14 17:01:00,
2013-01-14 12:06:00,24.4,20.0,30.08,NNE,14,2.0,2.0,83,0.00,,---,0.00,218.00,VWS V14.01,2013-01-14 17:06:00,
2013-01-14 12:11:00,24.5,20.1,30.06,NNE,15,5.0,7.0,83,0.00,,---,0.00,171.00,VWS V14.01,2013-01-14 17:11:00,
2013-01-14 12:16:00,24.4,19.7,30.06,NNE,24,6.0,9.0,82,0.00,,---,0.00,199.00,VWS V14.01,2013-01-14 17:16:00,
2013-01-14 12:21:00,24.2,19.5,30.06,NE,49,0.0,1.0,82,0.00,,---,0.00,265.00,VWS V14.01,2013-01-14 17:21:00,
2013-01-14 12:26:00,24.2,19.5,30.07,NE,49,2.0,4.0,82,0.00,,---,0.00,199.00,VWS V14.01,2013-01-14 17:26:00,
2013-01-14 12:31:00,24.3,19.6,30.08,NE,44,4.0,5.0,82,0.00,,---,0.00,234.00,VWS V14.01,2013-01-14 17:31:00,
2013-01-14 12:36:00,24.5,20.1,30.09,North,11,2.0,3.0,83,0.00,,---,0.00,244.00,VWS V14.01,2013-01-14 17:36:00,
2013-01-14 12:41:00,24.8,20.4,30.09,North,11,0.0,0.0,83,0.00,,---,0.00,211.00,VWS V14.01,2013-01-14 17:41:00,
2013-01-14 12:46:00,25.0,20.6,30.09,NNW,346,3.0,6.0,83,0.00,,---,0.00,225.00,VWS V14.01,2013-01-14 17:46:00,
2013-01-14 12:51:00,25.3,20.9,30.09,NNW,346,2.0,2.0,83,0.00,,---,0.00,243.00,VWS V14.01,2013-01-14 17:51:00,
2013-01-14 12:56:00,25.5,21.1,30.09,NNW,345,2.0,3.0,83,0.00,,---,0.00,162.00,VWS V14.01,2013-01-14 17:56:00,
2013-01-14 13:01:00,25.6,21.2,30.10,NNW,345,2.0,4.0,83,0.00,,---,0.00,158.00,VWS V14.01,2013-01-14 18:01:00,
2013-01-14 13:06:00,25.7,21.0,30.09,NNW,344,2.0,4.0,82,0.00,,---,0.00,156.00,VWS V14.01,2013-01-14 18:06:00,
2013-01-14 13:11:00,25.7,21.0,30.08,North,355,5.0,6.0,82,0.00,,---,0.00,165.00,VWS V14.01,2013-01-14 18:11:00,
2013-01-14 13:16:00,25.6,20.9,30.09,NNW,335,0.0,3.0,82,0.00,,---,0.00,172.00,VWS V14.01,2013-01-14 18:16:00,
2013-01-14 13:21:00,25.6,20.9,30.09,NNW,348,5.0,5.0,82,0.00,,---,0.00,155.00,VWS V14.01,2013-01-14 18:21:00,
2013-01-14 13:26:00,25.4,20.7,30.08,NNW,340,2.0,4.0,82,0.00,,---,0.00,155.00,VWS V14.01,2013-01-14 18:26:00,
2013-01-14 13:31:00,25.3,20.6,30.08,NNE,13,3.0,5.0,82,0.00,,---,0.00,165.00,VWS V14.01,2013-01-14 18:31:00,
2013-01-14 13:36:00,25.1,20.1,30.09,NNE,28,3.0,4.0,81,0.00,,---,0.00,181.00,VWS V14.01,2013-01-14 18:36:00,
2013-01-14 13:41:00,24.9,19.9,30.09,NNE,22,6.0,10.0,81,0.00,,---,0.00,162.00,VWS V14.01,2013-01-14 18:41:00,
2013-01-14 13:46:00,24.9,20.2,30.09,NNE,13,5.0,7.0,82,0.00,,---,0.00,211.00,VWS V14.01,2013-01-14 18:46:00,
2013-01-14 13:51:00,25.2,20.5,30.09,North,355,3.0,4.0,82,0.00,,---,0.00,272.00,VWS V14.01,2013-01-14 18:51:00,
2013-01-14 13:56:00,25.4,20.7,30.09,NNW,333,2.0,5.0,82,0.00,,---,0.00,211.00,VWS V14.01,2013-01-14 18:56:00,
2013-01-14 14:01:00,25.5,20.8,30.10,North,360,6.0,6.0,82,0.00,,---,0.00,272.00,VWS V14.01,2013-01-14 19:01:00,
2013-01-14 14:06:00,25.4,20.4,30.09,North,360,4.0,6.0,81,0.00,,---,0.00,318.00,VWS V14.01,2013-01-14 19:06:00,
2013-01-14 14:11:00,25.3,20.0,30.08,NNE,30,4.0,9.0,80,0.00,,---,0.00,230.00,VWS V14.01,2013-01-14 19:11:00,
2013-01-14 14:16:00,25.2,19.9,30.09,NNW,341,2.0,2.0,80,0.00,,---,0.00,255.00,VWS V14.01,2013-01-14 19:16:00,
2013-01-14 14:21:00,25.1,19.8,30.08,NNW,348,4.0,4.0,80,0.00,,---,0.00,244.00,VWS V14.01,2013-01-14 19:21:00,
2013-01-14 14:26:00,25.2,19.9,30.09,North,350,3.0,4.0,80,0.00,,---,0.00,216.00,VWS V14.01,2013-01-14 19:26:00,
2013-01-14 14:31:00,25.4,20.1,30.09,North,360,4.0,7.0,80,0.00,,---,0.00,218.00,VWS V14.01,2013-01-14 19:31:00,
2013-01-14 14:36:00,25.3,19.7,30.08,NNW,339,7.0,7.0,79,0.00,,---,0.00,151.00,VWS V14.01,2013-01-14 19:36:00,
2013-01-14 14:41:00,25.3,20.0,30.08,NNW,338,2.0,3.0,80,0.00,,---,0.00,127.00,VWS V14.01,2013-01-14 19:41:00,
2013-01-14 14:46:00,25.0,19.7,30.09,NNW,348,5.0,5.0,80,0.00,,---,0.00,105.00,VWS V14.01,2013-01-14 19:46:00,
2013-01-14 14:51:00,24.7,19.4,30.09,NNE,15,5.0,6.0,80,0.00,,---,0.00,107.00,VWS V14.01,2013-01-14 19:51:00,
2013-01-14 14:56:00,24.5,19.5,30.10,North,360,5.0,5.0,81,0.00,,---,0.00,109.00,VWS V14.01,2013-01-14 19:56:00,
2013-01-14 15:01:00,24.7,20.0,30.12,North,355,2.0,2.0,82,0.00,,---,0.00,100.00,VWS V14.01,2013-01-14 20:01:00,
2013-01-14 15:06:00,24.7,20.0,30.12,North,350,3.0,10.0,82,0.00,,---,0.00,104.00,VWS V14.01,2013-01-14 20:06:00,
2013-01-14 15:11:00,24.8,20.1,30.13,NNW,329,6.0,10.0,82,0.00,,---,0.00,97.00,VWS V14.01,2013-01-14 20:11:00,
2013-01-14 15:16:00,24.7,19.7,30.12,NNE,19,8.0,11.0,81,0.00,,---,0.00,83.00,VWS V14.01,2013-01-14 20:16:00,
2013-01-14 15:21:00,24.4,19.4,30.11,North,360,2.0,10.0,81,0.00,,---,0.00,76.00,VWS V14.01,2013-01-14 20:21:00,
2013-01-14 15:26:00,24.3,19.3,30.12,North,11,2.0,7.0,81,0.00,,---,0.00,97.00,VWS V14.01,2013-01-14 20:26:00,
2013-01-14 15:31:00,24.3,19.3,30.13,North,355,7.0,10.0,81,0.00,,---,0.00,98.00,VWS V14.01,2013-01-14 20:31:00,
2013-01-14 15:36:00,24.4,19.7,30.13,North,360,3.0,10.0,82,0.00,,---,0.00,98.00,VWS V14.01,2013-01-14 20:36:00,
2013-01-14 15:41:00,24.4,19.4,30.13,NNW,332,6.0,9.0,81,0.00,,---,0.00,90.00,VWS V14.01,2013-01-14 20:41:00,
2013-01-14 15:46:00,24.5,19.8,30.13,NW,325,7.0,10.0,82,0.00,,---,0.00,88.00,VWS V14.01,2013-01-14 20:46:00,
2013-01-14 15:51:00,24.6,19.9,30.14,NNW,344,8.0,9.0,82,0.00,,---,0.00,60.00,VWS V14.01,2013-01-14 20:51:00,
2013-01-14 15:56:00,24.8,20.4,30.14,NNW,331,7.0,9.0,83,0.00,,---,0.00,74.00,VWS V14.01,2013-01-14 20:56:00,
2013-01-14 16:01:00,24.8,20.1,30.14,NNW,331,5.0,11.0,82,0.00,,---,0.00,102.00,VWS V14.01,2013-01-14 21:01:00,
2013-01-14 16:06:00,24.7,20.0,30.14,NNW,334,6.0,9.0,82,0.00,,---,0.00,69.00,VWS V14.01,2013-01-14 21:06:00,
2013-01-14 16:11:00,24.7,19.7,30.14,North,351,3.0,7.0,81,0.00,,---,0.00,65.00,VWS V14.01,2013-01-14 21:11:00,
2013-01-14 16:16:00,24.6,19.9,30.15,NNW,334,4.0,6.0,82,0.00,,---,0.00,49.00,VWS V14.01,2013-01-14 21:16:00,
2013-01-14 16:21:00,24.5,19.5,30.14,NNW,340,9.0,14.0,81,0.00,,---,0.00,44.00,VWS V14.01,2013-01-14 21:21:00,
2013-01-14 16:25:00,24.4,19.7,30.16,NW,325,5.0,10.0,82,0.00,,---,0.00,35.00,VWS V14.01,2013-01-14 21:25:00,
2013-01-14 16:31:00,24.4,19.7,30.16,NNW,329,5.0,10.0,82,0.00,,---,0.00,39.00,VWS V14.01,2013-01-14 21:31:00,
2013-01-14 16:35:00,24.5,19.8,30.17,NNW,338,5.0,6.0,82,0.00,,---,0.00,42.00,VWS V14.01,2013-01-14 21:35:00,
2013-01-14 16:41:00,24.5,19.8,30.18,NNW,337,2.0,9.0,82,0.00,,---,0.00,33.00,VWS V14.01,2013-01-14 21:41:00,
2013-01-14 16:45:00,24.5,19.8,30.18,NNW,331,5.0,9.0,82,0.00,,---,0.00,30.00,VWS V14.01,2013-01-14 21:45:00,
2013-01-14 16:51:00,24.4,19.7,30.18,NNW,345,5.0,7.0,82,0.00,,---,0.00,23.00,VWS V14.01,2013-01-14 21:51:00,
2013-01-14 16:56:00,24.3,19.3,30.18,NNE,14,6.0,6.0,81,0.00,,---,0.00,16.00,VWS V14.01,2013-01-14 21:56:00,
2013-01-14 17:01:00,24.3,19.3,30.17,North,349,5.0,5.0,81,0.00,,---,0.00,21.00,VWS V14.01,2013-01-14 22:01:00,
2013-01-14 17:05:00,24.3,19.3,30.17,North,349,5.0,5.0,81,0.00,,---,0.00,12.00,VWS V14.01,2013-01-14 22:05:00,
2013-01-14 17:10:00,24.1,19.1,30.15,NE,54,6.0,6.0,81,0.00,,---,0.00,12.00,VWS V14.01,2013-01-14 22:10:00,
2013-01-14 17:15:00,24.0,19.0,30.13,NE,55,5.0,7.0,81,0.00,,---,0.00,9.00,VWS V14.01,2013-01-14 22:15:00,
2013-01-14 17:20:00,23.8,18.5,30.14,NE,36,6.0,7.0,80,0.00,,---,0.00,5.00,VWS V14.01,2013-01-14 22:20:00,
2013-01-14 17:25:00,23.8,18.8,30.15,NNE,15,4.0,6.0,81,0.00,,---,0.00,0.00,VWS V14.01,2013-01-14 22:25:00,
2013-01-14 17:30:00,23.8,18.8,30.15,NNE,15,2.0,4.0,81,0.00,,---,0.00,0.00,VWS V14.01,2013-01-14 22:30:00,
2013-01-14 17:35:00,23.8,18.8,30.14,NNE,15,2.0,4.0,81,0.00,,---,0.00,0.00,VWS V14.01,2013-01-14 22:35:00,
2013-01-14 17:40:00,23.8,18.8,30.12,NE,47,9.0,9.0,81,0.00,,---,0.00,0.00,VWS V14.01,2013-01-14 22:40:00,
2013-01-14 17:45:00,23.7,18.7,30.12,NE,53,6.0,6.0,81,0.00,,---,0.00,0.00,VWS V14.01,2013-01-14 22:45:00,
2013-01-14 17:50:00,23.7,18.7,30.12,NE,55,3.0,6.0,81,0.00,,---,0.00,0.00,VWS V14.01,2013-01-14 22:50:00,
2013-01-14 17:55:00,23.6,18.6,30.12,NE,34,5.0,7.0,81,0.00,,---,0.00,0.00,VWS V14.01,2013-01-14 22:55:00,
2013-01-14 18:00:00,23.6,18.6,30.13,NNE,26,4.0,8.0,81,0.00,,---,0.00,0.00,VWS V14.01,2013-01-14 23:00:00,
2013-01-14 18:05:00,23.8,19.1,30.13,NNE,25,2.0,4.0,82,0.00,,---,0.00,0.00,VWS V14.01,2013-01-14 23:05:00,
2013-01-14 18:10:00,23.9,19.2,30.16,NNW,332,2.0,7.0,82,0.00,,---,0.00,0.00,VWS V14.01,2013-01-14 23:10:00,
2013-01-14 18:15:00,24.2,19.8,30.16,NW,321,3.0,9.0,83,0.00,,---,0.00,0.00,VWS V14.01,2013-01-14 23:15:00,
2013-01-14 18:20:00,24.2,19.5,30.17,NNW,338,2.0,7.0,82,0.00,,---,0.00,0.00,VWS V14.01,2013-01-14 23:20:00,
2013-01-14 18:25:00,24.2,19.5,30.15,NNE,19,7.0,9.0,82,0.00,,---,0.00,0.00,VWS V14.01,2013-01-14 23:25:00,
2013-01-14 18:30:00,24.1,19.4,30.16,North,360,3.0,5.0,82,0.00,,---,0.00,0.00,VWS V14.01,2013-01-14 23:30:00,
2013-01-14 18:35:00,24.0,19.3,30.15,North,355,4.0,6.0,82,0.00,,---,0.00,0.00,VWS V14.01,2013-01-14 23:35:00,
2013-01-14 18:40:00,24.0,19.3,30.14,North,355,2.0,6.0,82,0.00,,---,0.00,0.00,VWS V14.01,2013-01-14 23:40:00,
2013-01-14 18:45:00,23.9,19.2,30.15,NNE,12,6.0,7.0,82,0.00,,---,0.00,0.00,VWS V14.01,2013-01-14 23:45:00,
2013-01-14 18:50:00,23.8,18.8,30.11,NNE,21,7.0,8.0,81,0.00,,---,0.00,0.00,VWS V14.01,2013-01-14 23:50:00,
2013-01-14 18:55:00,23.7,18.7,30.14,NNE,25,3.0,4.0,81,0.00,,---,0.00,0.00,VWS V14.01,2013-01-14 23:55:00,
2013-01-14 19:00:00,23.6,18.6,30.14,NNE,24,3.0,5.0,81,0.00,,---,0.00,0.00,VWS V14.01,2013-01-15 00:00:00,
2013-01-14 19:05:00,23.7,18.7,30.12,NNE,27,4.0,7.0,81,0.00,,---,0.00,0.00,VWS V14.01,2013-01-15 00:05:00,
2013-01-14 19:10:00,23.6,18.6,30.13,NNE,32,3.0,6.0,81,0.00,,---,0.00,0.00,VWS V14.01,2013-01-15 00:10:00,
2013-01-14 19:15:00,23.6,18.6,30.12,NE,37,3.0,4.0,81,0.00,,---,0.00,0.00,VWS V14.01,2013-01-15 00:15:00,
2013-01-14 19:20:00,23.6,18.6,30.12,NNE,31,4.0,7.0,81,0.00,,---,0.00,0.00,VWS V14.01,2013-01-15 00:20:00,
2013-01-14 19:25:00,23.6,18.6,30.13,NNE,31,2.0,4.0,81,0.00,,---,0.00,0.00,VWS V14.01,2013-01-15 00:25:00,
2013-01-14 19:30:00,23.6,18.6,30.13,NE,45,2.0,5.0,81,0.00,,---,0.00,0.00,VWS V14.01,2013-01-15 00:30:00,
2013-01-14 19:35:00,23.6,18.6,30.13,NE,48,4.0,4.0,81,0.00,,---,0.00,0.00,VWS V14.01,2013-01-15 00:35:00,
2013-01-14 19:40:00,23.6,18.6,30.13,NE,49,2.0,2.0,81,0.00,,---,0.00,0.00,VWS V14.01,2013-01-15 00:40:00,
2013-01-14 19:45:00,23.6,18.6,30.13,NE,49,2.0,4.0,81,0.00,,---,0.00,0.00,VWS V14.01,2013-01-15 00:45:00,
2013-01-14 19:50:00,23.7,19.0,30.14,NE,49,2.0,4.0,82,0.00,,---,0.00,0.00,VWS V14.01,2013-01-15 00:50:00,
2013-01-14 19:55:00,23.7,19.0,30.14,NE,51,4.0,6.0,82,0.00,,---,0.00,0.00,VWS V14.01,2013-01-15 00:55:00,
2013-01-14 20:00:00,23.7,18.7,30.13,NE,51,3.0,3.0,81,0.00,,---,0.00,0.00,VWS V14.01,2013-01-15 01:00:00,
2013-01-14 20:05:00,23.7,18.7,30.13,NE,53,2.0,5.0,81,0.00,,---,0.00,0.00,VWS V14.01,2013-01-15 01:05:00,
2013-01-14 20:10:00,23.7,18.7,30.12,NE,52,5.0,5.0,81,0.00,,---,0.00,0.00,VWS V14.01,2013-01-15 01:10:00,
2013-01-14 20:15:00,23.7,18.7,30.12,NE,41,0.0,4.0,81,0.00,,---,0.00,0.00,VWS V14.01,2013-01-15 01:15:00,
2013-01-14 20:20:00,23.7,18.7,30.12,NE,41,4.0,4.0,81,0.00,,---,0.00,0.00,VWS V14.01,2013-01-15 01:20:00,
2013-01-14 20:25:00,23.7,18.7,30.12,NE,40,3.0,4.0,81,0.00,,---,0.00,0.00,VWS V14.01,2013-01-15 01:25:00,
2013-01-14 20:30:00,23.6,18.6,30.12,NE,40,5.0,6.0,81,0.00,,---,0.00,0.00,VWS V14.01,2013-01-15 01:30:00,
2013-01-14 20:35:00,23.6,18.9,30.12,NE,38,4.0,6.0,82,0.00,,---,0.00,0.00,VWS V14.01,2013-01-15 01:35:00,
2013-01-14 20:40:00,23.6,18.9,30.12,NE,38,5.0,5.0,82,0.00,,---,0.00,0.00,VWS V14.01,2013-01-15 01:40:00,
2013-01-14 20:45:00,23.6,18.9,30.11,NE,38,3.0,3.0,82,0.00,,---,0.00,0.00,VWS V14.01,2013-01-15 01:45:00,
2013-01-14 20:50:00,23.6,18.9,30.11,NE,38,3.0,3.0,82,0.00,,---,0.00,0.00,VWS V14.01,2013-01-15 01:50:00,
2013-01-14 20:55:00,23.6,18.9,30.11,NE,38,0.0,0.0,82,0.00,,---,0.00,0.00,VWS V14.01,2013-01-15 01:55:00,
2013-01-14 21:00:00,23.5,19.1,30.11,NE,38,4.0,4.0,83,0.00,,---,0.00,0.00,VWS V14.01,2013-01-15 02:00:00,
2013-01-14 21:05:00,23.5,19.1,30.11,NE,38,0.0,0.0,83,0.00,,---,0.00,0.00,VWS V14.01,2013-01-15 02:05:00,
2013-01-14 21:10:00,23.5,19.1,30.12,NE,38,3.0,4.0,83,0.00,,---,0.00,0.00,VWS V14.01,2013-01-15 02:10:00,
2013-01-14 21:15:00,23.6,19.2,30.12,NE,38,2.0,3.0,83,0.00,,---,0.00,0.00,VWS V14.01,2013-01-15 02:15:00,
2013-01-14 21:20:00,23.6,19.2,30.11,NE,38,3.0,3.0,83,0.00,,---,0.00,0.00,VWS V14.01,2013-01-15 02:20:00,
2013-01-14 21:25:00,23.6,19.5,30.11,NE,38,2.0,3.0,84,0.00,,---,0.00,0.00,VWS V14.01,2013-01-15 02:25:00,
2013-01-14 21:30:00,23.8,19.7,30.11,NE,38,3.0,3.0,84,0.00,,---,0.00,0.00,VWS V14.01,2013-01-15 02:30:00,
2013-01-14 21:35:00,23.8,19.7,30.10,NE,38,3.0,3.0,84,0.00,,---,0.00,0.00,VWS V14.01,2013-01-15 02:35:00,
2013-01-14 21:40:00,23.9,19.8,30.10,NE,48,4.0,5.0,84,0.00,,---,0.00,0.00,VWS V14.01,2013-01-15 02:40:00,
2013-01-14 21:45:00,24.0,19.9,30.10,NE,49,2.0,3.0,84,0.00,,---,0.00,0.00,VWS V14.01,2013-01-15 02:45:00,
2013-01-14 21:50:00,24.1,20.0,30.10,NE,52,5.0,6.0,84,0.00,,---,0.00,0.00,VWS V14.01,2013-01-15 02:50:00,
2013-01-14 21:55:00,24.1,20.0,30.10,NE,56,2.0,3.0,84,0.00,,---,0.00,0.00,VWS V14.01,2013-01-15 02:55:00,
2013-01-14 22:00:00,24.2,20.1,30.10,NE,56,3.0,6.0,84,0.00,,---,0.00,0.00,VWS V14.01,2013-01-15 03:00:00,
2013-01-14 22:05:00,24.2,20.1,30.10,NE,51,2.0,4.0,84,0.00,,---,0.00,0.00,VWS V14.01,2013-01-15 03:05:00,
2013-01-14 22:10:00,24.3,20.2,30.09,NE,48,4.0,4.0,84,0.00,,---,0.00,0.00,VWS V14.01,2013-01-15 03:10:00,
2013-01-14 22:15:00,24.3,20.2,30.10,NE,48,2.0,3.0,84,0.00,,---,0.00,0.00,VWS V14.01,2013-01-15 03:15:00,
2013-01-14 22:20:00,24.3,20.2,30.10,NE,48,1.0,4.0,84,0.00,,---,0.00,0.00,VWS V14.01,2013-01-15 03:20:00,
2013-01-14 22:25:00,24.4,20.3,30.09,NE,48,2.0,3.0,84,0.00,,---,0.00,0.00,VWS V14.01,2013-01-15 03:25:00,
2013-01-14 22:30:00,24.4,20.3,30.10,NE,48,3.0,4.0,84,0.00,,---,0.00,0.00,VWS V14.01,2013-01-15 03:30:00,
2013-01-14 22:35:00,24.4,20.0,30.10,NE,46,3.0,3.0,83,0.00,,---,0.00,0.00,VWS V14.01,2013-01-15 03:35:00,
2013-01-14 22:40:00,24.4,20.0,30.10,NE,46,2.0,4.0,83,0.00,,---,0.00,0.00,VWS V14.01,2013-01-15 03:40:00,
2013-01-14 22:45:00,24.5,20.1,30.10,NE,46,4.0,5.0,83,0.00,,---,0.00,0.00,VWS V14.01,2013-01-15 03:45:00,
2013-01-14 22:50:00,24.5,20.1,30.10,NE,45,0.0,0.0,83,0.00,,---,0.00,0.00,VWS V14.01,2013-01-15 03:50:00,
2013-01-14 22:55:00,24.5,20.1,30.10,NE,46,4.0,6.0,83,0.00,,---,0.00,0.00,VWS V14.01,2013-01-15 03:55:00,
2013-01-14 23:00:00,24.6,20.2,30.10,NE,46,0.0,4.0,83,0.00,,---,0.00,0.00,VWS V14.01,2013-01-15 04:00:00,
2013-01-14 23:05:00,24.6,20.2,30.10,NE,46,3.0,4.0,83,0.00,,---,0.00,0.00,VWS V14.01,2013-01-15 04:05:00,
2013-01-14 23:10:00,24.7,20.6,30.10,NE,45,2.0,3.0,84,0.00,,---,0.00,0.00,VWS V14.01,2013-01-15 04:10:00,
2013-01-14 23:15:00,24.7,20.6,30.10,NE,46,5.0,6.0,84,0.00,,---,0.00,0.00,VWS V14.01,2013-01-15 04:15:00,
2013-01-14 23:20:00,24.8,20.4,30.10,NE,45,0.0,0.0,83,0.00,,---,0.00,0.00,VWS V14.01,2013-01-15 04:20:00,
2013-01-14 23:25:00,24.8,20.7,30.10,NE,46,4.0,4.0,84,0.00,,---,0.00,0.00,VWS V14.01,2013-01-15 04:25:00,
2013-01-14 23:30:00,24.9,20.8,30.11,NE,46,4.0,4.0,84,0.00,,---,0.00,0.00,VWS V14.01,2013-01-15 04:30:00,
2013-01-14 23:35:00,24.9,20.5,30.10,NE,46,0.0,0.0,83,0.00,,---,0.00,0.00,VWS V14.01,2013-01-15 04:35:00,
2013-01-14 23:40:00,24.9,20.5,30.10,NE,44,5.0,6.0,83,0.00,,---,0.00,0.00,VWS V14.01,2013-01-15 04:40:00,
2013-01-14 23:45:00,25.0,20.9,30.11,NE,40,3.0,4.0,84,0.00,,---,0.00,0.00,VWS V14.01,2013-01-15 04:45:00,
2013-01-14 23:50:00,25.0,20.9,30.10,NE,39,4.0,6.0,84,0.00,,---,0.00,0.00,VWS V14.01,2013-01-15 04:50:00,
2013-01-14 23:55:00,25.0,20.6,30.10,NNE,30,4.0,5.0,83,0.00,,---,0.00,0.00,VWS V14.01,2013-01-15 04:55:00,